Погода в Чаршанге

Погода в Чаршанге : погода сейчас, прогноз погоды и архив. Всё, что Вы хотите узнать о погоде в Чаршанге!

Хотите узнать прогноз погоды в Чаршанге? Тогда Вам сюда: Погода в Чаршанге

Поиск расширенной информации на нашем сайте:

Другие новости

Новости СМИ2

Главная страница сайта

Новости сайта

03.07.2017

Напоминаем, что на нашем специализированном сайте Метеоцентр.Азия вы можете получить высокодетализированные автоматические прогнозы погоды по пунктам России, СНГ и мира в авиационном формате (включающие направление и скорость ветра, видимость, явления погоды, количество и форму облачности, нижнюю и верхнюю границу облачности).


Погода в Чаршанге - сегодня

Время (UTC), дата Ветер
(°,м/с) 
Видим.   Явления Облачность Т
(°С)
Тd
(°С)
f(%) Тe
(°С)
Pmin
(гПа)
dP
(гПа)
Po
(мм)
O2
(г/м3)
Тmin Tmax R s Состояние
почвы
12 18.11.18 170 (Ю) 10 км    8/0 средняя 
[Ac As]
+14 +8 67 +15  1023.4  -0.6  744  284           
15 18.11.18 тихо ()   10 км    9/9 600 м 
[Sc]
+12.4 +7.4 72 +12  1024.6  744  286    +15       
18 18.11.18 тихо ()   10 км    5/0 средняя 
[Ac und]
+9.4 +6.7 83 +9  1025  0.1  745  289    +15       
21 18.11.18 тихо ()   10 км    8/0 средняя 
[Ac As]
+9 +6.4 84 +9  1024.4  -0.6  744  289           
00 19.11.18 тихо ()   10 км    8/0 средняя 
[Ac As]
+7.8 +5.8 87 +8  1023.6  -0.9  743  290           
03 19.11.18 тихо ()   10 км    5/0 верхняя 
[Ci fib]
+6.6 +4.8 88 +7  1024  0.2  744  292           
06 19.11.18 020 (С) 10 км    8/0 верхняя 
[Ci sp]
+12.6 +4.8 59 +14  1023  -0.3  743  286  +6.3         
09 19.11.18 110 (В) 10 км    8/0 верхняя 
[Ci sp]
+16.8 +4.8 45 +18  1021  -1.5  742  281           
12 19.11.18 320 (СЗ) 10 км    4/0 верхняя 
[Ci fib]
+17.4 +4.8 43 +18  1021.2  0.2  742  280           
15 19.11.18 030 (СВ) 17000 м    н/о 
-32.2 -33  1027.7  0.7  743  339           
18 19.11.18 тихо ()   10 км    5/0 средняя 
[Ac und]
+11 +5.3 68 +11  1022.8  0.5  743  287    +18.3       
21 19.11.18 340 (С) 10 км    6/0 средняя, верхняя 
[Ac As|Cs]
+10.8 +6.5 75 +11  1023.9  1.1  744  287           
00 20.11.18 340 (С) 4000 м  слаб. дождь  10/10 300 м 
[Ns]
+11.6 +7.4 75 +11  1024.8  0.9  745  287           
03 20.11.18 300 (СЗ) 4000 м  слаб. дождь  10/10 300 м 
[Ns]
+10 +9 93 +10  1027.4  2.4  746  288         
06 20.11.18 320 (СЗ) 4000 м  слаб. дождь  10/10 300 м 
[Ns]
+9.3 +8.1 92 +9  1029.4  748  290  +10       
09 20.11.18 300 (СЗ) 10 км  {дождь}  5/5 600 м 
[Cu Sc]
+11.6 +8.4 81 +12  1028.5  -0.7  747  287           
12 20.11.18 290 (З) 10 км  {дождь}  4/0 верхняя 
[Ci fib]
+12 +8.4 79 +12  1027.7  -0.8  747  287           
15 20.11.18 тихо ()   10 км    3/0 верхняя 
[Ci fib]
+9.5 +7.6 88 +10  1027.8  -0.1  747  289    +13.3     
18 20.11.18 120 (ЮВ) 10 км    3/0 верхняя 
[Ci fib]
+10.1 +7.8 86 +10  1026.2  -1.6  745  288    +13.3     
21 20.11.18 тихо ()   10 км    3/0 верхняя 
[Ci fib]
+8.8 +6.8 87 +9  1023.3  -2.9  743  289           
00 21.11.18 340 (С) 10 км    3/0 верхняя 
[Ci fib]
+7.4 +5.8 90 +7  1020.5  -3.1  741  290           
03 21.11.18 050 (СВ) 10 км    8/0 верхняя 
[Cs]
+8.3 +6.1 86 +9  1017.6  -2.7  739  288           
06 21.11.18 030 (СВ) 10 км    6/0 средняя, верхняя 
[Ac trans|Cs]
+16.8 +3 40 +17  1014.6  -1.9  737  279  +5.4         
09 21.11.18 340 (С) 10 км    10/3 600 м верхняя 
[Ci sp]
+13 +6.8 66 +13    -0.5             
12 21.11.18 250 (З) 10 км    9/6 600 м средняя 
[Sc diur, vesp|Ac cuf]
+13.4 +6.5 63 +14  1012.1  -2.1  736  281           
Время (UTC), дата Ветер
(°,м/с) 
Видим.   Явления Облачность Т
(°С)
Тd
(°С)
f(%) Тe
(°С)
Pmin
(гПа)
dP
(гПа)
Po
(мм)
O2
(г/м3)
Тmin Tmax R s Состояние
почвы

Для получения пояснительной информации подведите курсор к названию столбца.

ПОГОДА в Чаршанге - архив

Всё, что Вы хотите узнать о погоде в Чаршанге - удобно и подробно!

Выберите нужную дату (начиная с 1 января 2015* года) и нажмите кнопку "Найти".
Будут отображены архивные сводки погоды по пункту Чаршанга, начиная с указанной даты.


Отображать данные в формате CSV (для использования в таблицах Excel)


Внимание! Наш архив погоды предназначен исключительно для личного некоммерческого использования в познавательных целях. Если Вам необходимы официальные справки о состоянии погоды (для производственных, юридических, коммерческих и т.п. целей), обращайтесь в органы Росгидромета.

*Примечание: данная дата относится к архиву по метеостанциям СССР (Россия, СНГ, Балтия).
Архив по метеостанциям Зарубежной Европы и Азии (кроме Китая) хранится 10 дней, по другим регионам земного шара (Китай, Африка, Америка, Австралия, Океания) - 1 день.

Чаршанга - район местоположения метеостанции


Название, широта, долгота, высота метеостанции:
Чаршанга 37.5°ш. 66°д. 265 м над ур. моря [Туркменистан]

Дополнительная информация

В oтличие oт бoльшинства пoгoдных сайтoв мы публикуем пoдрoбную метеoинфoрмацию в детальнoм прoфессиoнальнoм фoрмате.

Характеристики температуры и влажнoсти вoздуха измеряются на высoте 2 м в тени вдали oт зданий и деревьев.
Скoрoсть ветра измеряется на высoте 10 м (на урoвне рoста челoвека скoрoсть ветра ниже в 1.5-2 раза). Если метеoстанция нахoдится в гoрoде или в лесу, тo скoрoсть ветра занижена на 2-4 м/с пo сравнению с oткрытым местoм. Скoрoсть ветра над акватoриями крупных рек и oзёр, а также на вершинах хoлмoв на 2-5 м/с выше, чем в oбычных услoвиях.
Атмoсфернoе давление в разных тoчках местнoсти мoжет значительнo oтличаться oт давления на метеoстанции, в зависимoсти oт услoвий рельефа (при пoдъёме на 10 м давление пoнижается примернo на 1 мм рт.ст.).